Location: Biharia
(46.4333°N, 22.8000°E)
Time: 01:01:59
(UTC+00:00)

H-2A R/B - Pass Details

Date: 16 October 2021
Orbit: 577 x 654 km, 98.5° (Epoch: 02 December)

Event Time Altitude Azimuth Distance (km) Brightness Sun altitude
Rises 16:36:46 0° 26° (NNE) 2,804 5.1 -10.5°
Reaches altitude 10° 16:39:17 10° 41° (NE) 1,901 4.2 -10.9°
Maximum altitude 16:42:37 24° 95° (E) 1,235 3.0 -11.5°
Drops below altitude 10° 16:45:57 10° 150° (SSE) 1,903 4.3 -12.1°
Sets 16:48:27 0° 164° (SSE) 2,807 5.3 -12.5°
